TimeMST,TemperatureF,Dew PointF,Humidity,Sea Level PressureIn,VisibilityMPH,Wind Direction,Wind SpeedMPH,Gust SpeedMPH,PrecipitationIn,Events,Conditions,WindDirDegrees,DateUTC
12:18 AM,-7.6,-11.2,84,30.50,3.0,Calm,Calm,-,N/A,,Scattered Clouds,0,2013-01-19 07:18:00
12:28 AM,-7.6,-9.4,92,30.50,3.0,Calm,Calm,-,N/A,,Mostly Cloudy,0,2013-01-19 07:28:00
12:35 AM,-4.0,-7.6,85,30.51,2.5,Calm,Calm,-,N/A,,Mostly Cloudy,0,2013-01-19 07:35:00
12:51 AM,-6.0,-11.0,79,30.78,2.5,Calm,Calm,-,N/A,,Haze,0,2013-01-19 07:51:00
1:28 AM,-7.6,-9.4,92,30.50,2.5,Calm,Calm,-,N/A,,Scattered Clouds,0,2013-01-19 08:28:00
1:51 AM,-9.9,-13.0,86,30.79,2.5,Calm,Calm,-,N/A,,Partly Cloudy,0,2013-01-19 08:51:00
2:00 AM,-9.4,-14.8,77,30.51,3.0,NNE,3.5,-,N/A,,Scattered Clouds,30,2013-01-19 09:00:00
2:29 AM,-9.4,-13.0,84,30.51,2.5,Calm,Calm,-,N/A,,Scattered Clouds,0,2013-01-19 09:29:00
2:51 AM,-8.0,-13.0,79,30.78,2.5,Calm,Calm,-,N/A,,Haze,0,2013-01-19 09:51:00
2:56 AM,-9.4,-13.0,84,30.52,3.0,North,3.5,-,N/A,,Mostly Cloudy,360,2013-01-19 09:56:00
3:10 AM,-9.4,-14.8,77,30.51,2.5,Calm,Calm,-,N/A,,Haze,0,2013-01-19 10:10:00
3:22 AM,-7.6,-11.2,84,30.52,1.5,Calm,Calm,-,N/A,,Overcast,0,2013-01-19 10:22:00
3:28 AM,-9.4,-11.2,92,30.51,1.5,Calm,Calm,-,N/A,,Overcast,0,2013-01-19 10:28:00
3:33 AM,-9.4,-11.2,92,30.51,0.8,Calm,Calm,-,N/A,,Mist,0,2013-01-19 10:33:00
3:42 AM,-9.4,-13.0,84,30.51,2.0,Calm,Calm,-,N/A,,Overcast,0,2013-01-19 10:42:00
3:51 AM,-9.0,-14.1,79,30.80,2.5,Calm,Calm,-,N/A,,Haze,0,2013-01-19 10:51:00
3:59 AM,-9.4,-11.2,92,30.51,0.8,Calm,Calm,-,N/A,,Mist,0,2013-01-19 10:59:00
4:51 AM,-11.0,-13.0,91,30.82,0.2,Calm,Calm,-,N/A,Fog,Light Freezing Fog,0,2013-01-19 11:51:00
5:51 AM,-9.0,-13.0,83,30.84,0.2,Calm,Calm,-,N/A,Fog,Light Freezing Fog,0,2013-01-19 12:51:00
6:26 AM,-9.4,-11.2,92,30.53,1.2,Calm,Calm,-,N/A,,Overcast,0,2013-01-19 13:26:00
6:31 AM,-9.4,-13.0,84,30.53,1.8,Calm,Calm,-,N/A,,Overcast,0,2013-01-19 13:31:00
6:35 AM,-9.4,-14.8,77,30.53,2.0,Calm,Calm,-,N/A,,Haze,0,2013-01-19 13:35:00
6:42 AM,-9.4,-14.8,77,30.53,1.5,Calm,Calm,-,N/A,,Haze,0,2013-01-19 13:42:00
6:51 AM,-9.0,-13.0,83,30.84,1.0,Calm,Calm,-,N/A,,Overcast,0,2013-01-19 13:51:00
7:00 AM,-9.4,-13.0,84,30.54,1.5,Calm,Calm,-,0.00,Snow,Light Snow,0,2013-01-19 14:00:00
7:37 AM,-7.6,-11.2,84,30.55,2.0,Calm,Calm,-,0.00,Snow,Light Snow,0,2013-01-19 14:37:00
7:51 AM,-6.0,-11.9,75,30.87,1.5,Calm,Calm,-,0.00,Snow,Light Snow,0,2013-01-19 14:51:00
8:18 AM,-5.8,-11.2,77,30.56,0.8,Calm,Calm,-,0.00,Snow,Light Snow,0,2013-01-19 15:18:00
8:33 AM,-5.8,-9.4,84,30.57,1.0,Calm,Calm,-,0.00,Snow,Light Snow,0,2013-01-19 15:33:00
8:51 AM,-4.0,-9.0,79,30.88,1.2,Calm,Calm,-,0.00,Snow,Light Snow,0,2013-01-19 15:51:00
9:12 AM,-4.0,-9.4,78,30.58,2.0,Calm,Calm,-,0.00,,Haze,0,2013-01-19 16:12:00
9:51 AM,-2.9,-8.0,79,30.90,2.5,Calm,Calm,-,0.00,,Haze,0,2013-01-19 16:51:00
10:40 AM,-0.4,-4.0,85,30.59,2.5,Calm,Calm,-,N/A,,Mostly Cloudy,0,2013-01-19 17:40:00
10:51 AM,-0.0,-6.0,76,30.89,2.5,NW,4.6,-,N/A,,Haze,320,2013-01-19 17:51:00
11:05 AM,-0.4,-5.8,78,30.59,1.8,Calm,Calm,-,N/A,,Haze,0,2013-01-19 18:05:00
11:11 AM,-0.4,-5.8,78,30.59,2.0,Calm,Calm,-,N/A,,Haze,0,2013-01-19 18:11:00
11:51 AM,1.9,1.9,100,30.88,2.5,Calm,Calm,-,N/A,,Scattered Clouds,0,2013-01-19 18:51:00
12:51 PM,1.9,-4.0,76,30.84,2.5,West,3.5,-,0.00,,Haze,260,2013-01-19 19:51:00
1:51 PM,6.1,-2.0,69,30.83,2.5,Calm,Calm,-,N/A,,Haze,0,2013-01-19 20:51:00
2:51 PM,3.9,-2.0,76,30.82,2.5,West,3.5,-,N/A,,Haze,280,2013-01-19 21:51:00
3:51 PM,6.1,-0.9,73,30.81,2.5,Calm,Calm,-,N/A,,Haze,0,2013-01-19 22:51:00
4:51 PM,3.9,-0.9,80,30.82,2.5,Calm,Calm,-,N/A,,Haze,0,2013-01-19 23:51:00
5:49 PM,-0.4,-4.0,85,30.51,3.0,Calm,Calm,-,N/A,,Clear,0,2013-01-20 00:49:00
5:51 PM,-0.0,-4.0,83,30.83,3.0,Calm,Calm,-,N/A,,Clear,0,2013-01-20 00:51:00
6:35 PM,-0.4,-5.8,78,30.51,2.5,Calm,Calm,-,N/A,,Haze,0,2013-01-20 01:35:00
6:51 PM,-2.0,-6.0,83,30.83,2.0,Calm,Calm,-,N/A,,Clear,0,2013-01-20 01:51:00
7:45 PM,-4.0,-7.6,85,30.51,1.5,Calm,Calm,-,N/A,,Clear,0,2013-01-20 02:45:00
7:51 PM,-2.9,-6.0,87,30.82,1.5,Calm,Calm,-,N/A,,Clear,0,2013-01-20 02:51:00
7:57 PM,-4.0,-7.6,85,30.51,0.8,Calm,Calm,-,N/A,,Mist,0,2013-01-20 02:57:00
8:18 PM,-5.8,-7.6,92,30.51,1.2,Calm,Calm,-,N/A,,Partly Cloudy,0,2013-01-20 03:18:00
8:31 PM,-4.0,-7.6,85,30.51,0.8,Calm,Calm,-,N/A,,Mist,0,2013-01-20 03:31:00
8:45 PM,-2.2,-5.8,85,30.51,1.5,Calm,Calm,-,N/A,,Clear,0,2013-01-20 03:45:00
8:48 PM,-2.2,-5.8,85,30.51,1.0,Calm,Calm,-,N/A,,Mist,0,2013-01-20 03:48:00
8:51 PM,-2.0,-5.1,87,30.82,0.8,Calm,Calm,-,N/A,,Mist,0,2013-01-20 03:51:00
9:03 PM,-2.2,-5.8,85,30.51,1.2,Calm,Calm,-,N/A,,Partly Cloudy,0,2013-01-20 04:03:00
9:42 PM,-7.6,-11.2,84,30.52,0.8,Calm,Calm,-,N/A,,Mist,0,2013-01-20 04:42:00
9:48 PM,-7.6,-9.4,92,30.51,0.2,Calm,Calm,-,N/A,Fog,Light Freezing Fog,0,2013-01-20 04:48:00
9:51 PM,-9.0,-9.9,96,30.84,0.2,Calm,Calm,-,N/A,Fog,Light Freezing Fog,0,2013-01-20 04:51:00
9:56 PM,-9.4,-11.2,92,30.51,0.2,SW,3.5,-,N/A,Fog,Light Freezing Fog,230,2013-01-20 04:56:00
10:03 PM,-9.4,-11.2,92,30.52,0.2,Calm,Calm,-,N/A,Fog,Light Freezing Fog,0,2013-01-20 05:03:00
10:51 PM,-9.0,-13.0,83,30.84,0.2,Calm,Calm,-,N/A,Fog,Light Freezing Fog,0,2013-01-20 05:51:00
11:19 PM,-7.6,-9.4,92,30.52,1.0,Calm,Calm,-,N/A,,Mist,0,2013-01-20 06:19:00
11:51 PM,-6.0,-9.9,83,30.81,1.0,Calm,Calm,-,N/A,,Mist,0,2013-01-20 06:51:00
11:56 PM,-7.6,-11.2,84,30.51,0.8,Calm,Calm,-,N/A,,Haze,0,2013-01-20 06:56:00